User: anonymous   Login
Location: Salamanca
(40.9670°N, 5.6500°W)
Time: 01:14:36
(UTC+01:00)
Language:

Cosmos 1633 Rocket - Orbit

View from above orbital plane
View from above orbital plane
View from above satellite
View from above satellite

Ground track
Ground track

The orbit data is extracted from the following two-line orbital elements,

1 15593U 85020B   18021.62038628 +.00000072 +00000-0 +57397-5 0  9990
2 15593 082.5362 058.2560 0012702 044.3099 107.2440 14.84308348755602
Epoch (UTC): 21 January 2018 14:53:21
Eccentricity: 0.0012702
inclination: 82.5362°
perigee height: 607 km
apogee height: 624 km
right ascension of ascending node: 58.2560°
argument of perigee: 44.3099°
revolutions per day: 14.84308348
mean anomaly at epoch: 107.2440°
orbit number at epoch: 75560

The dashed part of the orbit path shows where the satellite is in the earth's shadow,  

DLR